Time,TemperatureF,DewpointF,PressureIn,WindDirection,WindDirectionDegrees,WindSpeedMPH,WindSpeedGustMPH,Humidity,HourlyPrecipIn,Conditions,Clouds,dailyrainin,SolarRadiationWatts/m^2,SoftwareType,DateUTC
2013-09-15 00:21:00,63.0,55.0,-100.00,NW,315,8.0,9.0,74,-99.99,,,-99.99,0.000000,,2013-09-15 06:21:00,
2013-09-15 00:42:00,63.0,55.0,-100.00,NW,314,8.0,9.0,75,-99.99,,,-99.99,0.000000,,2013-09-15 06:42:00,
2013-09-15 01:11:00,63.0,55.0,-100.00,NW,319,8.0,9.0,75,-99.99,,,-99.99,0.000000,,2013-09-15 07:11:00,
2013-09-15 02:11:00,63.0,54.0,-100.00,NW,314,7.0,8.0,73,-99.99,,,-99.99,0.000000,,2013-09-15 08:11:00,
2013-09-15 02:22:00,63.0,54.0,-100.00,NW,312,6.0,9.0,73,-99.99,,,-99.99,0.000000,,2013-09-15 08:22:00,
2013-09-15 02:43:00,63.0,55.0,-100.00,NW,316,6.0,8.0,75,-99.99,,,-99.99,0.000000,,2013-09-15 08:43:00,
2013-09-15 02:52:00,63.0,55.0,-100.00,NW,318,6.0,8.0,75,-99.99,,,-99.99,0.000000,,2013-09-15 08:52:00,
2013-09-15 03:02:00,63.0,55.0,-100.00,NW,318,6.0,8.0,75,-99.99,,,-99.99,0.000000,,2013-09-15 09:02:00,
2013-09-15 03:43:00,64.0,53.0,-100.00,NNW,329,3.0,6.0,67,-99.99,,,-99.99,0.000000,,2013-09-15 09:43:00,
2013-09-15 04:13:00,62.0,54.0,-100.00,NW,326,7.0,9.0,75,-99.99,,,-99.99,0.000000,,2013-09-15 10:13:00,
2013-09-15 04:43:00,62.0,53.0,-100.00,NNW,333,6.0,7.0,70,-99.99,,,-99.99,0.000000,,2013-09-15 10:43:00,
2013-09-15 04:53:00,63.0,52.0,-100.00,NNW,335,5.0,6.0,68,-99.99,,,-99.99,0.000000,,2013-09-15 10:53:00,
2013-09-15 05:02:00,63.0,52.0,-100.00,NNW,335,5.0,6.0,68,-99.99,,,-99.99,0.000000,,2013-09-15 11:02:00,
2013-09-15 05:22:00,61.0,52.0,-100.00,NW,324,6.0,8.0,71,-99.99,,,-99.99,0.000000,,2013-09-15 11:22:00,
2013-09-15 05:42:00,60.0,52.0,-100.00,NW,313,7.0,9.0,73,-99.99,,,-99.99,0.000000,,2013-09-15 11:42:00,
2013-09-15 06:42:00,61.0,53.0,-100.00,NW,319,6.0,7.0,74,-99.99,,,-99.99,-1.390000,,2013-09-15 12:42:00,
2013-09-15 07:11:00,62.0,53.0,-100.00,NNW,334,3.0,5.0,70,-99.99,,,-99.99,-1.390000,,2013-09-15 13:11:00,
2013-09-15 07:42:00,60.0,53.0,-100.00,NW,317,5.0,7.0,77,-99.99,,,-99.99,13.250000,,2013-09-15 13:42:00,
2013-09-15 07:53:00,62.0,53.0,-100.00,NW,310,4.0,6.0,74,-99.99,,,-99.99,41.139999,,2013-09-15 13:53:00,
2013-09-15 08:12:00,63.0,54.0,-100.00,NW,312,5.0,6.0,73,-99.99,,,-99.99,66.250000,,2013-09-15 14:12:00,
2013-09-15 13:42:00,75.0,54.0,-100.00,South,169,5.0,11.0,47,-99.99,,,-99.99,807.510010,,2013-09-15 19:42:00,
2013-09-15 13:52:00,76.0,54.0,-100.00,SSW,192,3.0,8.0,46,-99.99,,,-99.99,806.809998,,2013-09-15 19:52:00,
2013-09-15 14:02:00,76.0,54.0,-100.00,SSW,192,3.0,8.0,46,-99.99,,,-99.99,806.809998,,2013-09-15 20:02:00,
2013-09-15 14:22:00,77.0,54.0,-100.00,SSE,164,4.0,9.0,44,-99.99,,,-99.99,793.570007,,2013-09-15 20:22:00,
2013-09-15 14:42:00,77.0,54.0,-100.00,SSE,155,4.0,10.0,44,-99.99,,,-99.99,778.219971,,2013-09-15 20:42:00,
2013-09-15 15:21:00,78.0,53.0,-100.00,SSE,161,6.0,11.0,43,-99.99,,,-99.99,721.739990,,2013-09-15 21:21:00,
2013-09-15 15:44:00,78.0,53.0,-100.00,SE,127,6.0,15.0,42,-99.99,,,-99.99,710.580017,,2013-09-15 21:44:00,
2013-09-15 15:54:00,79.0,53.0,-100.00,SSE,164,6.0,13.0,41,-99.99,,,-99.99,677.109985,,2013-09-15 21:54:00,
2013-09-15 16:14:00,78.0,54.0,-100.00,SSE,148,7.0,12.0,42,-99.99,,,-99.99,633.880005,,2013-09-15 22:14:00,
2013-09-15 16:44:00,79.0,54.0,-100.00,SSE,153,7.0,13.0,42,-99.99,,,-99.99,565.539978,,2013-09-15 22:44:00,
2013-09-15 17:42:00,74.0,58.0,-100.00,South,172,11.0,17.0,59,-99.99,,,-99.99,222.449997,,2013-09-15 23:42:00,
2013-09-15 17:53:00,73.0,56.0,-100.00,South,182,8.0,15.0,55,-99.99,,,-99.99,146.440002,,2013-09-15 23:53:00,
2013-09-15 18:01:00,73.0,56.0,-100.00,South,182,8.0,15.0,55,-99.99,,,-99.99,146.440002,,2013-09-16 00:01:00,
2013-09-15 18:22:00,71.0,56.0,-100.00,SW,232,3.0,8.0,57,-99.99,,,-99.99,29.990000,,2013-09-16 00:22:00,
2013-09-15 18:42:00,72.0,57.0,-100.00,WNW,291,4.0,6.0,57,-99.99,,,-99.99,96.230003,,2013-09-16 00:42:00,
2013-09-15 19:42:00,72.0,57.0,-100.00,ESE,102,2.0,5.0,57,-99.99,,,-99.99,13.950000,,2013-09-16 01:42:00,
2013-09-15 20:42:00,68.0,60.0,-100.00,NW,310,4.0,6.0,74,-99.99,,,-99.99,0.000000,,2013-09-16 02:42:00,
2013-09-15 21:45:00,72.0,58.0,-100.00,ESE,114,2.0,5.0,62,-99.99,,,-99.99,0.000000,,2013-09-16 03:45:00,
2013-09-15 22:43:00,71.0,59.0,-100.00,North,352,1.0,3.0,67,-99.99,,,-99.99,0.000000,,2013-09-16 04:43:00,
2013-09-15 23:44:00,67.0,59.0,-100.00,WNW,298,2.0,4.0,77,-99.99,,,-99.99,0.000000,,2013-09-16 05:44:00,
2013-09-15 23:53:00,68.0,58.0,-100.00,SSW,204,2.0,8.0,71,-99.99,,,-99.99,0.000000,,2013-09-16 05:53:00,